Fairbanks, AK

1:24 PM AKDT on August 21, 2019 (GMT -0800)
Fairbanks International

Weather History for PAFA - January, 1975

Change the Weather History Date:

Wednesday, January 8, 1975

  Actual Average Record
Temperature  
Mean Temperature -38 °F -8 °F  
Max Temperature -33 °F 1 °F 40 °F (1930)
Min Temperature -43 °F -15 °F -53 °F (1952)
Degree Days  
Heating Degree Days 103 73  
Month to date heating degree days 580  
Since 1 July heating degree days 6852  
Cooling Degree Days 0 0  
Month to date cooling degree days 0  
Year to date cooling degree days 0  
Moisture  
Dew Point -45 °F    
Average Humidity 68    
Maximum Humidity 73    
Minimum Humidity 67    
Precipitation  
Precipitation 0.00 in 0.02 in 0.38 in (1960)
Month to date precipitation 0.17  
Year to date precipitation 0.17  
Snow  
Snow 0.00 in 0.40 in 6.00 in (1960)
Month to date snowfall 3.1  
Since 1 July snowfall 41.0  
Snow Depth -    
Sea Level Pressure  
Sea Level Pressure 30.41 in    
Wind  
Wind Speed 1 mph (North)    
Max Wind Speed 5 mph    
Max Gust Speed -    
T = Trace of Precipitation, MM = Missing Value Source: NWS Daily Summary

Daily Weather History Graph

Daily Weather History Graph

Search for Another Location

Airport or City:

Astronomy

Jan. 08, 1975 Rise Set
Actual Time 9:43 AM AHST 2:13 PM AHST
Civil Twilight 8:26 AM AHST 3:29 PM AHST
Nautical Twilight 7:18 AM AHST 4:38 PM AHST
Astronomical Twilight 6:17 AM AHST 5:39 PM AHST
Moon 6:46 AM AHST (1/8) 11:08 AM AHST (1/8)
Length of Visible Light 7h 03m
Length of Day
4h 29m
Waning Crescent, 12% of the Moon is Illuminated
Jan 8
Waning Crescent
Jan 12
New
Jan 20
First Quarter
Jan 27
Full
Feb 2
Last Quarter

Hourly Weather History & Observations

Time (AHST) Temp. Windchill Dew Point Humidity Pressure Visibility Wind Dir Wind Speed Gust Speed Precip Events Conditions
12:00 AM -43.1 °F -57.0 °F -50.1 °F 67% 30.52 in 0.2 mi NNW 3.5 mph - N/A Fog Fog
12:45 AM - - - N/A% 30.44 in 0.5 mi Calm Calm - N/A Fog Fog
1:00 AM -42.0 °F - -49.0 °F 67% 30.53 in 0.5 mi Calm Calm - N/A Fog Fog
2:00 AM -42.0 °F -55.8 °F -49.0 °F 67% 30.53 in 0.5 mi NNE 3.5 mph - N/A Fog Fog
3:00 AM -42.0 °F - -49.0 °F 67% 30.53 in 0.5 mi Calm Calm - N/A Fog Fog
4:00 AM -42.0 °F -58.9 °F -49.0 °F 67% 30.52 in 0.5 mi NNE 4.6 mph - N/A Fog Fog
5:00 AM -42.0 °F - -49.0 °F 67% 30.50 in 0.5 mi Calm Calm - N/A Fog , Snow Light Snow
6:00 AM -38.0 °F -51.3 °F -45.0 °F 68% 30.48 in 0.5 mi North 3.5 mph - N/A Fog , Snow Light Snow
6:37 AM - - - N/A% 30.38 in 1.0 mi Calm Calm - N/A Fog Unknown
7:00 AM -38.0 °F - -45.0 °F 68% 30.47 in 1.0 mi Calm Calm - N/A Fog , Snow Light Snow
8:00 AM -38.0 °F -51.3 °F -45.0 °F 68% 30.47 in 0.8 mi SW 3.5 mph - N/A Fog , Snow Light Snow
8:07 AM - - - N/A% 30.38 in 0.5 mi SW 3.5 mph - N/A Fog Unknown
9:00 AM -38.0 °F - -45.0 °F 68% 30.47 in 0.5 mi Calm Calm - N/A Fog , Snow Light Snow
9:13 AM - - - N/A% 30.38 in 0.2 mi Calm Calm - N/A Fog Ice Crystals
10:00 AM -38.0 °F - -45.0 °F 68% 30.46 in 0.2 mi Calm Calm - N/A Fog Ice Crystals
11:00 AM -38.0 °F - -45.0 °F 68% 30.45 in 0.1 mi Calm Calm - N/A Fog Ice Crystals
12:00 PM -38.0 °F - -45.0 °F 68% 30.43 in 0.2 mi Calm Calm - N/A Fog Fog
12:15 PM - - - N/A% 30.35 in 0.5 mi Calm Calm - N/A Fog Fog
12:16 PM - - - N/A% 30.35 in 0.5 mi Calm Calm - N/A Fog Fog
12:18 PM - - - N/A% 30.35 in 0.2 mi Calm Calm - N/A   Mostly Cloudy
12:24 PM - - - N/A% 30.35 in 0.1 mi Calm Calm - N/A Fog Fog
12:30 PM - - - N/A% 30.35 in 0.2 mi Calm Calm - N/A Fog Fog
1:00 PM -38.0 °F - -45.0 °F 68% 30.41 in 0.2 mi Calm Calm - N/A Fog Fog
2:00 PM -38.0 °F - -45.0 °F 68% 30.40 in 0.2 mi Calm Calm - N/A Fog Fog
3:00 PM -38.0 °F - -45.0 °F 68% 30.40 in 0.2 mi Calm Calm - N/A Fog Ice Crystals
4:00 PM - - - N/A% 30.38 in 0.1 mi Calm Calm - N/A Fog Ice Crystals
5:00 PM -38.0 °F - -45.0 °F 68% 30.37 in 0.2 mi Calm Calm - N/A Fog , Snow Light Snow
5:28 PM - - - N/A% 30.29 in 0.5 mi Calm Calm - N/A Fog Unknown
6:00 PM -38.0 °F - -45.0 °F 68% 30.37 in 0.5 mi Calm Calm - N/A Fog , Snow Light Snow
7:00 PM - - - N/A% 30.35 in 0.8 mi NE 3.5 mph - N/A Fog Unknown
7:14 PM - - - N/A% 30.27 in 1.0 mi Calm Calm - N/A Fog Unknown
8:00 PM -33.0 °F - -38.9 °F 73% 30.35 in 1.0 mi Calm Calm - N/A Fog , Snow Light Snow
9:00 PM -33.0 °F - -38.9 °F 73% 30.33 in 1.0 mi Calm Calm - N/A Fog , Snow Light Snow
10:00 PM -33.0 °F - -38.9 °F 73% 30.33 in 0.8 mi Calm Calm - N/A Fog , Snow Light Snow
11:00 PM -35.0 °F - -42.0 °F 68% 30.32 in 0.8 mi Calm Calm - N/A Fog , Snow Light Snow